• In Lithuania
  • List of Countries
  • For 7 days
  • Water Temperature
  • Satellite Maps
  • Weather Map
  • Weather Widgets
  • user-avatar
    Login

    Hourly Weather Barcelona

    Today, 21 November, Tuesday

    Time Temperature Precipitation Wind Pressure Humidity
    00:00 +27°C° 0.1 mm 4 mps 757 mmHg 86%
    01:00 +27°C° 0.1 mm 3 mps 756 mmHg 87%
    02:00 +27°C° 0 mm 4 mps 756 mmHg 86%
    03:00 +26°C° 0 mm 3 mps 756 mmHg 87%
    04:00 +26°C° 0 mm 3 mps 756 mmHg 87%
    05:00 +26°C° 0 mm 3 mps 756 mmHg 87%
    06:00 +27°C° 0 mm 3 mps 757 mmHg 82%
    07:00 +28°C° 0 mm 2 mps 757 mmHg 76%
    08:00 +30°C° 0 mm 2 mps 757 mmHg 70%
    09:00 +32°C° 0 mm 2 mps 757 mmHg 62%
    10:00 +35°C° 0 mm 1 mps 758 mmHg 53%
    11:00 +39°C° 0 mm 1 mps 758 mmHg 44%
    12:00 +38°C° 0.1 mm 2 mps 757 mmHg 46%
    13:00 +37°C° 0.1 mm 2 mps 756 mmHg 48%
    14:00 +37°C° 0.1 mm 3 mps 756 mmHg 51%
    15:00 +35°C° 0.1 mm 3 mps 755 mmHg 55%
    16:00 +34°C° 0.1 mm 4 mps 755 mmHg 60%
    17:00 +33°C° 0.1 mm 5 mps 755 mmHg 65%
    18:00 +32°C° 0.1 mm 5 mps 756 mmHg 69%
    19:00 +30°C° 0.1 mm 5 mps 756 mmHg 74%
    20:00 +29°C° 0.1 mm 5 mps 757 mmHg 78%
    21:00 +28°C° 0.1 mm 5 mps 757 mmHg 79%
    22:00 +28°C° 0.1 mm 4 mps 757 mmHg 80%
    23:00 +28°C° 0.1 mm 4 mps 757 mmHg 81%

    Tomorrow, 22 November, Wednesday

    Time Temperature Precipitation Wind Pressure Humidity
    00:00 +27°C° 0.3 mm 4 mps 757 mmHg 82%
    01:00 +27°C° 0.3 mm 3 mps 757 mmHg 82%
    02:00 +27°C° 0.3 mm 3 mps 757 mmHg 83%
    03:00 +26°C° 0.3 mm 3 mps 756 mmHg 84%
    04:00 +26°C° 0.3 mm 3 mps 756 mmHg 85%
    05:00 +26°C° 0.3 mm 3 mps 756 mmHg 86%
    06:00 +27°C° 0.1 mm 3 mps 757 mmHg 81%
    07:00 +29°C° 0.1 mm 3 mps 757 mmHg 76%
    08:00 +30°C° 0.1 mm 3 mps 758 mmHg 71%
    09:00 +33°C° 0.1 mm 3 mps 758 mmHg 65%
    10:00 +35°C° 0.1 mm 2 mps 758 mmHg 59%
    11:00 +37°C° 0.1 mm 2 mps 758 mmHg 53%
    12:00 +36°C° 0.9 mm 3 mps 757 mmHg 58%
    13:00 +35°C° 0.9 mm 3 mps 756 mmHg 63%
    14:00 +34°C° 0.9 mm 4 mps 755 mmHg 69%
    15:00 +33°C° 0.9 mm 4 mps 755 mmHg 72%
    16:00 +32°C° 0.9 mm 4 mps 755 mmHg 76%
    17:00 +32°C° 0.9 mm 4 mps 755 mmHg 80%
    18:00 +30°C° 0.1 mm 4 mps 755 mmHg 82%
    19:00 +29°C° 0.1 mm 4 mps 756 mmHg 85%
    20:00 +28°C° 0.1 mm 4 mps 757 mmHg 88%
    21:00 +28°C° 0 mm 4 mps 757 mmHg 88%
    22:00 +27°C° 0 mm 4 mps 757 mmHg 89%
    23:00 +27°C° 0 mm 4 mps 757 mmHg 90%

    Day after tomorrow, 23 November, Thursday

    Time Temperature Precipitation Wind Pressure Humidity
    00:00 +27°C° 0 mm 3 mps 757 mmHg 90%
    01:00 +26°C° 0 mm 3 mps 756 mmHg 91%
    02:00 +26°C° 0 mm 3 mps 756 mmHg 91%
    03:00 +26°C° 0 mm 3 mps 756 mmHg 91%
    04:00 +25°C° 0 mm 3 mps 756 mmHg 92%
    05:00 +25°C° 0 mm 3 mps 756 mmHg 92%
    06:00 +26°C° 0 mm 3 mps 756 mmHg 87%
    07:00 +28°C° 0 mm 3 mps 757 mmHg 82%
    08:00 +29°C° 0 mm 3 mps 758 mmHg 78%
    09:00 +32°C° 0 mm 2 mps 758 mmHg 68%
    10:00 +35°C° 0 mm 2 mps 758 mmHg 59%
    11:00 +38°C° 0 mm 2 mps 758 mmHg 49%
    12:00 +37°C° 0 mm 2 mps 757 mmHg 51%
    13:00 +36°C° 0 mm 3 mps 756 mmHg 53%
    14:00 +36°C° 0 mm 3 mps 755 mmHg 55%
    15:00 +35°C° 0 mm 3 mps 755 mmHg 59%
    16:00 +34°C° 0 mm 4 mps 755 mmHg 63%
    17:00 +32°C° 0 mm 4 mps 754 mmHg 67%
    18:00 +30°C° 0.1 mm 4 mps 755 mmHg 72%
    19:00 +29°C° 0.1 mm 4 mps 756 mmHg 78%
    20:00 +28°C° 0.1 mm 4 mps 756 mmHg 83%
    21:00 +28°C° 0.4 mm 4 mps 757 mmHg 85%
    22:00 +27°C° 0.4 mm 4 mps 757 mmHg 87%
    23:00 +27°C° 0.4 mm 4 mps 757 mmHg 88%

    24 November, Friday

    Time Temperature Precipitation Wind Pressure Humidity
    00:00 +27°C° 0.2 mm 3 mps 757 mmHg 89%
    01:00 +26°C° 0.2 mm 3 mps 756 mmHg 89%
    02:00 +26°C° 0.2 mm 3 mps 756 mmHg 89%
    03:00 +26°C° 0 mm 3 mps 756 mmHg 90%
    04:00 +26°C° 0 mm 2 mps 756 mmHg 90%
    05:00 +25°C° 0 mm 2 mps 756 mmHg 90%
    06:00 +27°C° 0 mm 2 mps 757 mmHg 85%
    07:00 +28°C° 0 mm 2 mps 757 mmHg 80%
    08:00 +29°C° 0 mm 1 mps 758 mmHg 75%
    09:00 +32°C° 0 mm 1 mps 758 mmHg 67%
    10:00 +34°C° 0 mm 1 mps 758 mmHg 58%
    11:00 +36°C° 0 mm 1 mps 758 mmHg 49%
    12:00 +37°C° 0.4 mm 2 mps 757 mmHg 52%
    13:00 +36°C° 0.4 mm 2 mps 756 mmHg 55%
    14:00 +35°C° 0.4 mm 2 mps 755 mmHg 57%
    15:00 +35°C° 0.3 mm 3 mps 755 mmHg 60%
    16:00 +34°C° 0.3 mm 3 mps 755 mmHg 64%
    17:00 +33°C° 0.3 mm 3 mps 755 mmHg 67%
    18:00 +31°C° 0.4 mm 3 mps 755 mmHg 73%
    19:00 +29°C° 0.4 mm 4 mps 756 mmHg 79%
    20:00 +28°C° 0.4 mm 4 mps 757 mmHg 85%
    21:00 +28°C° 0.2 mm 4 mps 757 mmHg 85%
    22:00 +27°C° 0.2 mm 4 mps 758 mmHg 86%
    23:00 +27°C° 0.2 mm 4 mps 758 mmHg 86%

    25 November, Saturday

    Time Temperature Precipitation Wind Pressure Humidity
    00:00 +27°C° 0.2 mm 3 mps 758 mmHg 86%
    01:00 +26°C° 0.2 mm 3 mps 757 mmHg 86%
    02:00 +26°C° 0.2 mm 3 mps 757 mmHg 86%
    03:00 +26°C° 0.1 mm 3 mps 757 mmHg 86%
    04:00 +26°C° 0.1 mm 2 mps 757 mmHg 86%
    05:00 +26°C° 0.1 mm 2 mps 757 mmHg 86%
    06:00 +27°C° 0 mm 2 mps 758 mmHg 82%
    07:00 +28°C° 0 mm 2 mps 758 mmHg 77%
    08:00 +29°C° 0 mm 2 mps 759 mmHg 72%
    09:00 +32°C° 0 mm 2 mps 759 mmHg 63%
    10:00 +35°C° 0 mm 2 mps 759 mmHg 55%
    11:00 +37°C° 0 mm 2 mps 759 mmHg 46%
    12:00 +37°C° 0 mm 2 mps 758 mmHg 46%
    13:00 +37°C° 0 mm 2 mps 757 mmHg 45%
    14:00 +37°C° 0 mm 3 mps 756 mmHg 45%
    15:00 +36°C° 0 mm 3 mps 756 mmHg 50%
    16:00 +35°C° 0 mm 3 mps 756 mmHg 55%
    17:00 +34°C° 0 mm 4 mps 755 mmHg 60%
    18:00 +32°C° 0.1 mm 4 mps 756 mmHg 66%
    19:00 +30°C° 0.1 mm 4 mps 757 mmHg 72%
    20:00 +28°C° 0.1 mm 4 mps 757 mmHg 79%
    21:00 +28°C° 0.2 mm 4 mps 757 mmHg 80%
    22:00 +27°C° 0.2 mm 4 mps 758 mmHg 81%
    23:00 +27°C° 0.2 mm 4 mps 758 mmHg 82%

    26 November, Sunday

    Time Temperature Precipitation Wind Pressure Humidity
    00:00 +27°C° 0.2 mm 3 mps 758 mmHg 82%
    01:00 +26°C° 0.2 mm 3 mps 757 mmHg 82%
    02:00 +26°C° 0.2 mm 3 mps 757 mmHg 82%
    03:00 +26°C° 0 mm 2 mps 757 mmHg 82%
    04:00 +26°C° 0 mm 2 mps 757 mmHg 83%
    05:00 +25°C° 0 mm 2 mps 757 mmHg 83%
    06:00 +27°C° 0 mm 2 mps 758 mmHg 78%
    07:00 +28°C° 0 mm 2 mps 758 mmHg 73%
    08:00 +29°C° 0 mm 2 mps 759 mmHg 68%
    09:00 +32°C° 0 mm 2 mps 759 mmHg 61%
    10:00 +35°C° 0 mm 2 mps 758 mmHg 53%
    11:00 +37°C° 0 mm 2 mps 758 mmHg 46%
    12:00 +37°C° 0 mm 2 mps 757 mmHg 46%
    13:00 +37°C° 0 mm 2 mps 756 mmHg 47%
    14:00 +37°C° 0 mm 3 mps 756 mmHg 47%
    15:00 +36°C° 0 mm 3 mps 755 mmHg 53%
    16:00 +34°C° 0 mm 3 mps 755 mmHg 58%
    17:00 +33°C° 0 mm 3 mps 755 mmHg 63%
    18:00 +32°C° 0.2 mm 4 mps 756 mmHg 69%
    19:00 +30°C° 0.2 mm 4 mps 756 mmHg 75%
    20:00 +28°C° 0.2 mm 4 mps 757 mmHg 81%
    21:00 +28°C° 0.2 mm 4 mps 757 mmHg 82%
    22:00 +28°C° 0.2 mm 3 mps 757 mmHg 83%
    23:00 +27°C° 0.2 mm 3 mps 758 mmHg 84%
    Show more